TimeCDT,TemperatureF,Dew PointF,Humidity,Sea Level PressureIn,VisibilityMPH,Wind Direction,Wind SpeedMPH,Gust SpeedMPH,PrecipitationIn,Events,Conditions,WindDirDegrees,DateUTC
12:15 AM,80.6,46.4,30,29.93,10.0,SSW,13.8,19.6,N/A,,Clear,210,2013-06-26 05:15:00
12:35 AM,78.4,50.4,37,29.93,10.0,SSW,12.7,-,N/A,,Clear,200,2013-06-26 05:35:00
12:55 AM,77.4,55.0,46,29.93,10.0,SSW,11.5,19.6,N/A,,Clear,200,2013-06-26 05:55:00
1:15 AM,76.1,55.9,50,29.93,10.0,SSW,12.7,16.1,N/A,,Clear,200,2013-06-26 06:15:00
1:35 AM,76.1,56.3,50,29.92,10.0,SSW,11.5,-,N/A,,Clear,210,2013-06-26 06:35:00
1:55 AM,75.6,57.7,54,29.92,10.0,SSW,12.7,-,N/A,,Clear,210,2013-06-26 06:55:00
2:15 AM,76.1,59.2,56,29.92,7.0,SSW,13.8,18.4,N/A,,Clear,210,2013-06-26 07:15:00
2:35 AM,75.9,60.1,58,29.92,7.0,SSW,11.5,-,N/A,,Clear,200,2013-06-26 07:35:00
2:55 AM,75.7,60.8,60,29.91,7.0,SSW,12.7,-,N/A,,Clear,200,2013-06-26 07:55:00
3:15 AM,75.7,61.3,61,29.91,10.0,SSW,8.1,17.3,N/A,,Clear,210,2013-06-26 08:15:00
3:35 AM,75.2,61.7,63,29.92,10.0,SSW,6.9,-,N/A,,Clear,210,2013-06-26 08:35:00
3:55 AM,72.9,61.5,67,29.93,10.0,South,6.9,-,N/A,,Clear,180,2013-06-26 08:55:00
4:15 AM,72.5,61.7,69,29.93,10.0,SSW,6.9,-,N/A,,Clear,200,2013-06-26 09:15:00
4:35 AM,72.0,61.9,70,29.93,10.0,SSW,8.1,-,N/A,,Clear,200,2013-06-26 09:35:00
4:55 AM,72.5,62.2,70,29.93,10.0,SSW,10.4,-,N/A,,Clear,200,2013-06-26 09:55:00
5:15 AM,72.0,62.1,71,29.94,10.0,SW,10.4,-,N/A,,Clear,220,2013-06-26 10:15:00
5:35 AM,72.1,62.1,70,29.94,10.0,SSW,11.5,-,N/A,,Clear,200,2013-06-26 10:35:00
5:55 AM,70.9,61.9,73,29.94,10.0,South,6.9,-,N/A,,Clear,190,2013-06-26 10:55:00
6:15 AM,69.6,61.7,76,29.95,10.0,South,6.9,-,N/A,,Clear,190,2013-06-26 11:15:00
6:35 AM,68.7,61.3,77,29.95,10.0,SSW,4.6,-,N/A,,Clear,200,2013-06-26 11:35:00
6:55 AM,69.1,61.7,77,29.96,10.0,SSW,8.1,-,N/A,,Clear,210,2013-06-26 11:55:00
7:15 AM,70.3,62.1,75,29.96,10.0,SSW,10.4,-,N/A,,Clear,210,2013-06-26 12:15:00
7:35 AM,71.1,62.2,74,29.96,10.0,SSW,11.5,-,N/A,,Clear,210,2013-06-26 12:35:00
7:55 AM,72.3,62.6,71,29.96,10.0,SSW,13.8,-,N/A,,Clear,210,2013-06-26 12:55:00
8:15 AM,73.8,62.6,68,29.96,10.0,SSW,10.4,-,N/A,,Clear,210,2013-06-26 13:15:00
8:35 AM,75.0,62.6,65,29.97,10.0,SW,13.8,-,N/A,,Clear,220,2013-06-26 13:35:00
8:55 AM,77.0,62.1,60,29.98,10.0,SW,10.4,-,N/A,,Clear,230,2013-06-26 13:55:00
9:15 AM,79.3,60.6,53,29.98,10.0,WSW,9.2,-,N/A,,Clear,240,2013-06-26 14:15:00
9:55 AM,84.0,55.4,37,29.99,10.0,WSW,11.5,-,N/A,,Clear,250,2013-06-26 14:55:00
10:15 AM,86.9,49.6,28,29.99,10.0,West,9.2,-,N/A,,Clear,270,2013-06-26 15:15:00
10:35 AM,88.0,49.1,26,29.99,10.0,West,10.4,-,N/A,,Clear,280,2013-06-26 15:35:00
10:55 AM,89.6,47.1,23,29.99,10.0,West,9.2,-,N/A,,Clear,270,2013-06-26 15:55:00
11:15 AM,91.9,40.6,17,30.00,10.0,NW,5.8,-,N/A,,Clear,320,2013-06-26 16:15:00
11:35 AM,94.3,40.1,15,30.00,10.0,NW,4.6,-,N/A,,Clear,310,2013-06-26 16:35:00
11:55 AM,96.3,35.8,12,30.00,10.0,NW,4.6,-,N/A,,Clear,320,2013-06-26 16:55:00
12:15 PM,96.8,35.1,12,30.00,10.0,WNW,3.5,-,N/A,,Clear,300,2013-06-26 17:15:00
12:35 PM,98.4,33.4,10,30.00,10.0,Calm,Calm,-,N/A,,Clear,0,2013-06-26 17:35:00
12:55 PM,99.9,32.2,9,30.00,10.0,Calm,Calm,-,N/A,,Clear,0,2013-06-26 17:55:00
1:15 PM,101.3,32.7,9,29.99,10.0,Calm,Calm,-,N/A,,Clear,0,2013-06-26 18:15:00
1:35 PM,102.2,32.7,9,29.99,10.0,Calm,Calm,-,N/A,,Clear,0,2013-06-26 18:35:00
1:55 PM,103.6,32.0,8,29.98,10.0,North,4.6,-,N/A,,Clear,10,2013-06-26 18:55:00
2:15 PM,103.3,26.4,7,29.98,10.0,Calm,Calm,-,N/A,,Clear,0,2013-06-26 19:15:00
2:35 PM,104.4,28.4,7,29.98,10.0,West,8.1,-,N/A,,Clear,280,2013-06-26 19:35:00
2:55 PM,104.7,24.6,6,29.97,10.0,SSW,8.1,-,N/A,,Clear,210,2013-06-26 19:55:00
3:15 PM,104.9,24.6,6,29.96,10.0,Calm,Calm,-,N/A,,Clear,0,2013-06-26 20:15:00
3:35 PM,105.3,26.1,6,29.96,10.0,SSW,8.1,-,N/A,,Clear,210,2013-06-26 20:35:00
3:55 PM,105.4,21.7,5,29.95,10.0,South,3.5,-,N/A,,Clear,170,2013-06-26 20:55:00
4:15 PM,106.0,22.8,5,29.95,10.0,South,4.6,-,N/A,,Clear,180,2013-06-26 21:15:00
4:35 PM,106.0,25.7,6,29.94,10.0,WNW,10.4,-,N/A,,Clear,290,2013-06-26 21:35:00
4:55 PM,106.9,25.9,6,29.94,10.0,ENE,8.1,-,N/A,,Clear,70,2013-06-26 21:55:00
5:15 PM,106.5,26.8,6,29.94,10.0,SSW,5.8,-,N/A,,Clear,200,2013-06-26 22:15:00
5:35 PM,105.8,26.8,6,29.94,10.0,SE,3.5,-,N/A,,Clear,140,2013-06-26 22:35:00
5:55 PM,105.6,28.9,7,29.94,10.0,SSW,8.1,20.7,N/A,,Clear,200,2013-06-26 22:55:00
6:15 PM,104.9,28.9,7,29.94,10.0,SSE,12.7,18.4,N/A,,Clear,160,2013-06-26 23:15:00
6:35 PM,104.5,29.3,7,29.94,10.0,SE,10.4,17.3,N/A,,Clear,130,2013-06-26 23:35:00
6:55 PM,104.5,29.3,7,29.94,10.0,SSE,11.5,-,N/A,,Clear,160,2013-06-26 23:55:00
7:15 PM,103.6,29.5,7,29.94,10.0,South,13.8,18.4,N/A,,Clear,170,2013-06-27 00:15:00
7:35 PM,102.7,29.7,8,29.94,10.0,South,12.7,-,N/A,,Clear,180,2013-06-27 00:35:00
7:55 PM,101.3,28.8,8,29.94,10.0,South,12.7,-,N/A,,Clear,180,2013-06-27 00:55:00
8:15 PM,99.5,29.8,9,29.95,10.0,South,8.1,-,N/A,,Clear,190,2013-06-27 01:15:00
8:35 PM,96.1,31.5,10,29.95,10.0,South,5.8,-,N/A,,Clear,180,2013-06-27 01:35:00
8:55 PM,90.9,33.3,13,29.95,10.0,East,8.1,-,N/A,,Clear,80,2013-06-27 01:55:00
9:15 PM,93.6,47.1,20,29.95,10.0,ESE,10.4,-,N/A,,Clear,110,2013-06-27 02:15:00
9:35 PM,90.1,53.1,28,29.96,10.0,SE,8.1,-,N/A,,Clear,130,2013-06-27 02:35:00
9:55 PM,88.9,54.5,31,29.97,10.0,East,12.7,-,N/A,,Clear,100,2013-06-27 02:55:00
10:15 PM,86.0,54.7,34,29.98,10.0,East,10.4,-,N/A,,Clear,100,2013-06-27 03:15:00
10:35 PM,84.6,55.4,37,29.99,10.0,East,10.4,-,N/A,,Clear,100,2013-06-27 03:35:00
10:55 PM,82.8,55.0,38,29.99,10.0,East,9.2,-,N/A,,Clear,100,2013-06-27 03:55:00
11:15 PM,81.5,52.5,37,30.00,10.0,ESE,9.2,-,N/A,,Clear,110,2013-06-27 04:15:00
11:35 PM,82.6,49.3,31,30.01,10.0,SE,10.4,-,N/A,,Clear,130,2013-06-27 04:35:00
11:55 PM,82.0,49.3,32,30.02,10.0,SE,9.2,-,N/A,,Clear,130,2013-06-27 04:55:00